EW1268 Weather Reports


Display with metric or nautical units.
time (UTC)temp
F
wind
direction
speed
MPH
gust
MPH
rain 1hr
in
rain 24hr
in
rain mn
in
humidity
%
barometer
mb
20260510112506 73 150 2.0 9.0 0.00 0.03 0.00 94 1011.4
20260510112006 73 148 2.0 9.0 0.00 0.03 0.00 94 1011.3
20260510111517 73 148 2.0 9.0 0.00 0.03 0.00 94 1011.3
20260510111008 73 178 2.0 6.0 0.00 0.03 0.00 94 1011.2
20260510110511 73 150 2.0 5.0 0.00 0.03 0.00 94 1011.2
20260510110033 73 249 2.0 6.0 0.00 0.03 0.00 94 1011.2
20260510105509 73 193 2.0 6.0 0.00 0.03 0.00 94 1011.1
20260510105011 73 169 2.0 6.0 0.00 0.03 0.00 94 1011.0
20260510104513 74 178 1.0 7.0 0.00 0.03 0.00 94 1010.9
20260510104005 74 238 2.0 7.0 0.00 0.03 0.00 94 1011.1
20260510103508 74 265 2.0 9.0 0.00 0.03 0.00 94 1011.1
20260510103022 74 193 2.0 10.0 0.00 0.03 0.00 94 1011.0
20260510102514 74 215 2.0 10.0 0.00 0.03 0.00 94 1011.0
20260510102010 74 247 3.0 9.0 0.00 0.03 0.00 94 1011.0
20260510101526 74 194 3.0 10.0 0.00 0.03 0.00 94 1011.0
20260510101008 73 190 5.0 11.0 0.00 0.03 0.00 94 1011.0
20260510100504 73 175 3.0 11.0 0.00 0.03 0.00 94 1010.9
20260510100014 73 178 4.0 13.0 0.00 0.03 0.00 94 1010.8
20260510095507 73 162 6.0 13.0 0.00 0.03 0.00 94 1010.8
20260510095010 73 153 5.0 11.0 0.00 0.03 0.00 94 1010.8
20260510094522 73 143 3.0 10.0 0.00 0.03 0.00 94 1010.7
20260510094011 73 200 3.0 10.0 0.00 0.03 0.00 94 1010.7
20260510093511 73 190 3.0 9.0 0.00 0.03 0.00 94 1010.6
20260510093047 73 202 3.0 9.0 0.00 0.03 0.00 94 1010.7
20260510092507 73 207 3.0 8.0 0.00 0.03 0.00 94 1010.8
20260510092010 73 193 4.0 8.0 0.00 0.03 0.00 94 1010.8
20260510091519 73 171 3.0 9.0 0.00 0.03 0.00 94 1010.8
20260510091008 73 165 3.0 9.0 0.00 0.03 0.00 94 1010.8
20260510090510 73 165 2.0 7.0 0.00 0.03 0.00 94 1010.8
20260510090040 73 178 2.0 6.0 0.00 0.03 0.00 94 1010.7
20260510085511 73 186 3.0 6.0 0.00 0.03 0.00 93 1010.7
20260510085011 73 171 3.0 6.0 0.00 0.03 0.00 93 1010.7
20260510084520 73 211 1.0 6.0 0.00 0.03 0.00 93 1010.8
20260510084008 73 193 2.0 7.0 0.00 0.03 0.00 93 1010.9
20260510083507 73 200 3.0 7.0 0.00 0.03 0.00 93 1010.9
20260510083025 73 165 2.0 6.0 0.00 0.03 0.00 93 1010.8
20260510082508 73 171 2.0 6.0 0.00 0.03 0.00 93 1010.9
20260510082011 73 168 1.0 4.0 0.00 0.03 0.00 93 1010.9
20260510081528 73 205 1.0 4.0 0.00 0.03 0.00 93 1011.0
20260510081007 73 167 1.0 4.0 0.00 0.03 0.00 93 1011.0
20260510080507 73 178 1.0 6.0 0.00 0.03 0.00 93 1011.0
20260510080017 73 153 1.0 6.0 0.00 0.03 0.00 93 1011.0
20260510075510 74 137 2.0 6.0 0.00 0.03 0.00 93 1011.0
20260510075009 73 126 1.0 6.0 0.00 0.03 0.00 93 1011.1
20260510074525 73 186 1.0 5.0 0.00 0.03 0.00 92 1010.9
20260510074014 74 61 2.0 7.0 0.00 0.03 0.00 92 1011.0
20260510073511 74 67 1.0 7.0 0.00 0.03 0.00 92 1010.9
20260510073028 73 170 2.0 5.0 0.00 0.03 0.00 92 1010.9
20260510072507 73 171 2.0 6.0 0.00 0.03 0.00 92 1010.9
20260510072007 73 34 1.0 6.0 0.00 0.03 0.00 92 1011.0
20260510071522 73 178 1.0 4.0 0.00 0.03 0.00 92 1011.0
20260510071007 73 153 0.0 5.0 0.00 0.03 0.00 92 1011.0
20260510070507 73 165 1.0 5.0 0.00 0.03 0.00 92 1011.1
20260510070028 73 119 1.0 5.0 0.00 0.03 0.00 92 1011.1
20260510065516 73 137 1.0 5.0 0.00 0.03 0.00 92 1011.0
20260510065008 73 146 1.0 9.0 0.00 0.03 0.00 92 1011.0
20260510064512 73 178 2.0 9.0 0.00 0.03 0.00 92 1010.9
20260510064009 73 188 2.0 7.0 0.00 0.03 0.00 92 1010.8
20260510063509 73 171 3.0 7.0 0.00 0.03 0.00 92 1010.9
20260510063022 73 167 3.0 7.0 0.00 0.03 0.00 92 1010.9
20260510062511 74 171 3.0 7.0 0.00 0.03 0.00 91 1010.9
20260510062011 74 93 2.0 7.0 0.00 0.03 0.00 91 1010.9
20260510061526 74 205 4.0 7.0 0.00 0.03 0.00 91 1011.0
20260510061010 74 184 3.0 7.0 0.00 0.03 0.00 92 1011.1
20260510060506 74 200 2.0 7.0 0.00 0.03 0.00 91 1011.2
20260510060018 74 165 2.0 5.0 0.00 0.03 0.00 91 1011.3
20260510055510 74 209 2.0 6.0 0.00 0.03 0.00 91 1011.2
20260510055006 74 137 2.0 7.0 0.00 0.03 0.00 91 1011.2
20260510054525 74 161 2.0 7.0 0.00 0.03 0.00 91 1011.2
20260510054012 73 178 2.0 6.0 0.00 0.03 0.00 91 1011.3
20260510053510 73 178 2.0 6.0 0.00 0.03 0.00 91 1011.3
20260510053029 73 265 2.0 7.0 0.00 0.03 0.00 90 1011.3
20260510052507 73 187 1.0 7.0 0.00 0.03 0.00 90 1011.5
20260510052008 73 93 2.0 7.0 0.00 0.03 0.00 90 1011.3
20260510051520 73 138 2.0 6.0 0.00 0.03 0.00 90 1011.3
20260510051009 73 167 3.0 6.0 0.00 0.03 0.00 90 1011.3
20260510050509 73 205 2.0 6.0 0.00 0.03 0.00 90 1011.3
20260510050029 73 161 2.0 5.0 0.00 0.03 0.00 89 1011.2
20260510045510 73 178 0.0 5.0 0.00 0.03 0.03 89 1011.3
20260510045011 73 51 0.0 5.0 0.00 0.03 0.03 89 1011.3
20260510044519 73 170 2.0 5.0 0.00 0.03 0.03 89 1011.2
20260510044006 73 178 1.0 5.0 0.00 0.03 0.03 89 1011.3
20260510043510 73 221 1.0 4.0 0.00 0.03 0.03 89 1011.5
20260510043024 73 107 1.0 3.0 0.00 0.03 0.03 88 1011.5
20260510042508 73 200 1.0 2.0 0.00 0.03 0.03 88 1011.5
20260510042008 73 165 0.0 4.0 0.00 0.03 0.03 88 1011.6
20260510041529 73 109 1.0 5.0 0.00 0.03 0.03 88 1011.5
20260510041009 73 171 1.0 5.0 0.00 0.03 0.03 88 1011.4
20260510040511 73 209 1.0 6.0 0.00 0.03 0.03 88 1011.3
20260510040020 73 150 1.0 6.0 0.00 0.03 0.03 88 1011.2
20260510035510 73 133 3.0 7.0 0.00 0.03 0.03 88 1011.2
20260510035008 73 150 2.0 7.0 0.00 0.03 0.03 88 1011.2
20260510034524 72 93 1.0 9.0 0.00 0.03 0.03 89 1011.4
20260510034013 72 171 2.0 9.0 0.00 0.03 0.03 89 1011.2
20260510033510 72 144 2.0 6.0 0.00 0.03 0.03 89 1011.3
20260510033026 72 165 2.0 5.0 0.00 0.03 0.03 89 1011.5
20260510032507 72 265 1.0 3.0 0.00 0.03 0.03 89 1011.4
20260510032009 72 119 1.0 3.0 0.00 0.03 0.03 89 1011.4
20260510031524 72 214 1.0 3.0 0.00 0.03 0.03 88 1011.4
20260510031011 72 93 1.0 2.0 0.00 0.03 0.03 88 1011.3
20260510030509 72 61 0.0 2.0 0.00 0.03 0.03 88 1011.2
20260510030035 72 93 0.0 2.0 0.00 0.03 0.03 88 1011.2
20260510025509 72 93 0.0 2.0 0.00 0.03 0.03 88 1010.9
20260510025016 73 338 1.0 3.0 0.00 0.03 0.03 88 1010.8
20260510024528 73 221 1.0 5.0 0.00 0.03 0.03 88 1010.6
20260510024009 73 157 1.0 5.0 0.00 0.03 0.03 88 1010.4
20260510023512 73 93 1.0 5.0 0.00 0.03 0.03 88 1010.3
20260510023024 73 159 2.0 6.0 0.00 0.03 0.03 88 1010.2
20260510022511 73 115 2.0 6.0 0.00 0.03 0.03 88 1010.2
20260510022011 73 165 3.0 7.0 0.00 0.03 0.03 88 1010.1
20260510021529 73 169 3.0 7.0 0.00 0.03 0.03 89 1009.9
20260510021010 72 170 2.0 6.0 0.00 0.03 0.03 89 1009.7
20260510020507 72 101 1.0 2.0 0.00 0.03 0.03 88 1009.5
20260510020023 72 153 0.0 2.0 0.00 0.03 0.03 88 1009.4
20260510015509 72 238 0.0 2.0 0.00 0.03 0.03 88 1009.3
20260510015008 72 51 0.0 2.0 0.00 0.03 0.03 88 1009.0
20260510014527 72 93 1.0 3.0 0.00 0.03 0.03 87 1008.9
20260510014010 72 161 0.0 3.0 0.00 0.03 0.03 87 1008.8
20260510013508 73 51 0.0 2.0 0.00 0.03 0.03 87 1008.8
20260510013026 73 67 0.0 2.0 0.00 0.03 0.03 87 1008.9
20260510012511 73 83 1.0 2.0 0.00 0.03 0.03 87 1008.8
20260510012008 73 76 0.0 3.0 0.00 0.03 0.03 86 1008.9
20260510011523 73 137 1.0 4.0 0.00 0.03 0.03 86 1008.8
20260510011008 73 196 1.0 4.0 0.00 0.03 0.03 86 1008.8
20260510010509 73 153 0.0 4.0 0.00 0.03 0.03 85 1008.9
20260510010026 73 309 1.0 5.0 0.00 0.03 0.03 85 1008.8
20260510005509 73 58 1.0 5.0 0.00 0.03 0.03 84 1008.6
20260510005008 74 83 1.0 5.0 0.01 0.03 0.03 83 1008.3
20260510004528 74 291 0.0 4.0 0.01 0.03 0.03 83 1008.3
20260510004010 74 178 0.0 7.0 0.03 0.03 0.03 82 1008.3
20260510003509 73 205 2.0 11.0 0.03 0.03 0.03 82 1008.3
20260510003026 73 170 4.0 11.0 0.03 0.03 0.03 83 1008.5
20260510002509 73 175 5.0 10.0 0.03 0.03 0.03 84 1008.7
20260510002011 73 188 4.0 9.0 0.03 0.03 0.03 84 1008.6
20260510001528 73 182 2.0 11.0 0.03 0.03 0.03 84 1008.8
20260510001011 72 163 5.0 12.0 0.03 0.03 0.03 84 1008.9
20260510000508 72 171 4.0 14.0 0.03 0.03 0.03 84 1009.2
20260510000021 73 173 4.0 14.0 0.03 0.03 0.03 85 1009.6
20260509235510 73 96 3.0 14.0 0.03 0.03 0.03 84 1009.3
20260509235011 74 169 7.0 22.0 0.02 0.02 0.02 82 1009.2
20260509234528 76 165 7.0 22.0 0.02 0.02 0.02 80 1008.7
20260509234010 80 184 7.0 16.0 0.00 0.00 0.00 75 1008.7
20260509233511 83 221 6.0 15.0 0.00 0.00 0.00 66 1008.5
20260509233027 85 192 7.0 15.0 0.00 0.00 0.00 66 1008.4
20260509232515 87 213 7.0 15.0 0.00 0.00 0.00 67 1008.0
20260509232009 89 166 4.0 9.0 0.00 0.00 0.00 69 1007.9
20260509231523 90 146 3.0 8.0 0.00 0.00 0.00 66 1008.0
20260509231007 91 221 1.0 4.0 0.00 0.00 0.00 67 1007.9
20260509230510 92 93 1.0 3.0 0.00 0.00 0.00 67 1007.9
20260509230028 93 170 1.0 4.0 0.00 0.00 0.00 67 1007.9
20260509225508 93 107 1.0 5.0 0.00 0.00 0.00 65 1007.8
20260509225009 94 143 1.0 5.0 0.00 0.00 0.00 64 1007.7
20260509224532 95 163 1.0 4.0 0.00 0.00 0.00 65 1007.7
20260509224008 96 119 1.0 5.0 0.00 0.00 0.00 64 1007.6
20260509223507 96 87 1.0 5.0 0.00 0.00 0.00 62 1007.7
20260509223023 97 119 1.0 5.0 0.00 0.00 0.00 65 1007.8
20260509222509 96 193 2.0 5.0 0.00 0.00 0.00 66 1007.5
20260509222009 95 178 1.0 4.0 0.00 0.00 0.00 66 1007.4
20260509221531 95 247 1.0 3.0 0.00 0.00 0.00 67 1007.4
20260509221011 94 58 1.0 4.0 0.00 0.00 0.00 66 1007.5
20260509220513 92 247 1.0 4.0 0.00 0.00 0.00 68 1007.6
20260509220021 92 51 1.0 4.0 0.00 0.00 0.00 70 1007.5
20260509215512 92 309 1.0 4.0 0.00 0.00 0.00 69 1007.4
20260509215012 93 291 1.0 3.0 0.00 0.00 0.00 68 1007.5
20260509214530 93 265 0.0 3.0 0.00 0.00 0.00 68 1007.5
20260509214009 94 67 0.0 6.0 0.00 0.00 0.00 66 1007.4
20260509213508 94 205 1.0 6.0 0.00 0.00 0.00 72 1007.6
20260509213016 92 137 3.0 6.0 0.00 0.00 0.00 72 1007.6
20260509212507 91 334 1.0 4.0 0.00 0.00 0.00 72 1007.6
20260509212010 93 314 2.0 6.0 0.00 0.00 0.00 69 1007.7
20260509211529 93 9 1.0 6.0 0.00 0.00 0.00 70 1007.7
20260509211011 93 116 2.0 4.0 0.00 0.00 0.00 72 1007.6
20260509210516 92 56 1.0 4.0 0.00 0.00 0.00 73 1007.8
20260509210027 91 221 1.0 4.0 0.00 0.00 0.00 72 1007.8
20260509205508 91 30 1.0 6.0 0.00 0.00 0.00 71 1008.0
20260509205006 91 30 1.0 6.0 0.00 0.00 0.00 71 1008.0
20260509204520 92 291 1.0 6.0 0.00 0.00 0.00 72 1008.1
20260509204011 91 90 2.0 6.0 0.00 0.00 0.00 77 1008.1
20260509203510 90 16 2.0 4.0 0.00 0.00 0.00 79 1008.1
20260509203029 89 170 1.0 5.0 0.00 0.00 0.00 76 1008.2
20260509202510 89 19 1.0 5.0 0.00 0.00 0.00 74 1008.4
20260509202019 90 309 0.0 4.0 0.00 0.00 0.00 72 1008.4
20260509201525 90 265 1.0 4.0 0.00 0.00 0.00 72 1008.5
20260509201012 90 325 2.0 6.0 0.00 0.00 0.00 76 1008.6
20260509200511 90 30 2.0 6.0 0.00 0.00 0.00 72 1008.6
20260509200023 90 238 1.0 6.0 0.00 0.00 0.00 79 1008.7
20260509195513 89 67 2.0 6.0 0.00 0.00 0.00 76 1008.7
20260509195010 89 254 2.0 5.0 0.00 0.00 0.00 74 1008.7
20260509194529 89 9 2.0 9.0 0.00 0.00 0.00 75 1008.7
20260509194015 89 9 2.0 10.0 0.00 0.00 0.00 73 1008.8
20260509193511 89 328 2.0 10.0 0.00 0.00 0.00 73 1008.7
20260509193030 89 51 2.0 6.0 0.00 0.00 0.00 78 1008.7
20260509192507 88 334 2.0 6.0 0.00 0.00 0.00 73 1008.8
20260509192010 88 309 1.0 6.0 0.00 0.00 0.00 74 1008.9
20260509191526 89 297 2.0 6.0 0.00 0.00 0.00 73 1008.9
20260509191011 88 184 2.0 6.0 0.00 0.00 0.00 74 1008.9
20260509190511 87 338 1.0 5.0 0.00 0.00 0.00 74 1009.0
20260509190025 88 257 2.0 5.0 0.00 0.00 0.00 74 1009.0
20260509185507 87 178 1.0 4.0 0.00 0.00 0.00 78 1009.0
20260509185014 87 319 1.0 4.0 0.00 0.00 0.00 78 1009.1
20260509184530 87 9 1.0 6.0 0.00 0.00 0.00 77 1009.2
20260509184012 87 61 1.0 6.0 0.00 0.00 0.00 77 1009.3
20260509183514 87 261 2.0 7.0 0.00 0.00 0.00 80 1009.4
20260509183026 87 249 2.0 7.0 0.00 0.00 0.00 77 1009.5
20260509182511 86 196 4.0 7.0 0.00 0.00 0.00 78 1009.5
20260509182013 86 225 2.0 5.0 0.00 0.00 0.00 79 1009.7
20260509181531 86 241 1.0 5.0 0.00 0.00 0.00 78 1009.7
20260509181010 86 42 1.0 5.0 0.00 0.00 0.00 78 1009.8
20260509180508 86 194 1.0 7.0 0.00 0.01 0.00 80 1009.8
20260509180024 85 184 3.0 9.0 0.00 0.01 0.00 79 1009.8
20260509175510 86 93 3.0 9.0 0.00 0.01 0.00 79 1010.0
20260509175011 85 229 2.0 8.0 0.00 0.01 0.00 80 1010.1
20260509174528 86 250 3.0 9.0 0.00 0.01 0.00 79 1010.2
20260509174010 86 190 2.0 10.0 0.00 0.01 0.00 79 1010.2
20260509173509 87 171 5.0 10.0 0.00 0.01 0.00 80 1010.2
20260509173016 87 217 4.0 11.0 0.00 0.01 0.00 82 1010.4
20260509172512 87 206 5.0 11.0 0.00 0.01 0.00 81 1010.3
20260509172010 87 194 4.0 10.0 0.00 0.01 0.00 82 1010.3
20260509171526 86 168 5.0 10.0 0.00 0.01 0.00 83 1010.3
20260509171011 86 185 4.0 9.0 0.00 0.01 0.00 84 1010.4
20260509170511 85 165 3.0 7.0 0.00 0.01 0.00 85 1010.6
20260509170029 85 93 1.0 7.0 0.00 0.01 0.00 83 1010.6
20260509165512 85 146 2.0 8.0 0.00 0.01 0.00 86 1010.7
20260509165008 83 190 2.0 8.0 0.00 0.01 0.00 87 1010.7
20260509164522 83 236 1.0 4.0 0.00 0.01 0.00 87 1010.6
20260509164011 82 163 1.0 4.0 0.00 0.01 0.00 88 1010.7
20260509163513 81 272 1.0 4.0 0.00 0.01 0.00 89 1010.6
20260509163025 80 265 1.0 2.0 0.00 0.01 0.00 88 1010.6
20260509162515 80 9 0.0 2.0 0.00 0.01 0.00 88 1010.6
20260509162011 80 67 0.0 1.0 0.00 0.01 0.00 88 1010.6
20260509161530 79 9 0.0 3.0 0.00 0.01 0.00 89 1010.6
20260509161010 80 9 1.0 3.0 0.00 0.01 0.00 89 1010.7
20260509160507 79 61 1.0 2.0 0.00 0.01 0.00 89 1010.5
20260509160024 79 51 0.0 2.0 0.00 0.01 0.00 89 1010.5
20260509155509 79 22 1.0 2.0 0.00 0.01 0.00 90 1010.6
20260509155013 79 67 0.0 2.0 0.00 0.01 0.00 89 1010.7
20260509154526 79 41 0.0 2.0 0.00 0.01 0.00 90 1010.7
20260509154014 79 26 1.0 2.0 0.00 0.01 0.00 91 1010.6
20260509153511 79 137 0.0 2.0 0.00 0.01 0.00 91 1010.6
20260509153019 79 80 1.0 2.0 0.00 0.01 0.00 92 1010.4
20260509152512 78 137 0.0 2.0 0.00 0.01 0.00 92 1010.5
20260509152009 78 51 0.0 2.0 0.00 0.01 0.00 92 1010.6
20260509151526 78 93 0.0 2.0 0.00 0.01 0.00 93 1010.7
20260509151008 78 93 0.0 3.0 0.00 0.01 0.00 93 1010.4
20260509150512 78 76 1.0 3.0 0.00 0.01 0.00 93 1010.2
20260509150030 77 46 1.0 5.0 0.00 0.01 0.00 94 1010.4
20260509145510 77 107 1.0 5.0 0.00 0.01 0.00 94 1010.3
20260509145011 77 190 1.0 4.0 0.00 0.01 0.00 94 1010.3
20260509144530 77 146 0.0 2.0 0.00 0.01 0.00 94 1010.2
20260509144010 76 44 1.0 2.0 0.00 0.01 0.00 94 1010.0
20260509143513 76 190 0.0 2.0 0.00 0.01 0.00 95 1009.9
20260509143028 76 325 0.0 2.0 0.00 0.01 0.00 95 1010.0
20260509142511 76 93 1.0 2.0 0.00 0.01 0.00 95 1009.9
20260509142010 76 51 0.0 2.0 0.00 0.01 0.00 95 1009.7
20260509141526 76 41 0.0 2.0 0.00 0.01 0.00 95 1009.8
20260509141012 76 205 1.0 2.0 0.00 0.01 0.00 95 1009.8
20260509140511 76 67 0.0 2.0 0.00 0.01 0.00 95 1009.6
20260509140026 76 93 0.0 5.0 0.00 0.01 0.00 95 1009.5
20260509135514 75 205 1.0 5.0 0.00 0.01 0.00 95 1009.5
20260509135012 75 143 1.0 4.0 0.00 0.01 0.00 95 1009.8
20260509134530 75 137 1.0 4.0 0.00 0.01 0.00 95 1009.8
20260509134013 75 178 1.0 4.0 0.00 0.01 0.00 95 1010.1
20260509133516 75 153 1.0 4.0 0.00 0.01 0.00 95 1010.5
20260509133029 75 221 1.0 4.0 0.00 0.01 0.00 95 1010.6
20260509132510 75 129 1.0 2.0 0.00 0.01 0.00 96 1010.2
20260509132011 75 67 0.0 4.0 0.00 0.01 0.00 96 1010.6
20260509131528 75 51 0.0 5.0 0.00 0.01 0.00 96 1010.6
20260509131015 75 142 2.0 5.0 0.00 0.01 0.00 96 1010.6
20260509130511 75 170 0.0 2.0 0.00 0.01 0.00 95 1010.7
20260509130030 75 165 0.0 2.0 0.00 0.01 0.00 95 1010.8
20260509125505 75 205 0.0 2.0 0.00 0.01 0.00 95 1011.0
20260509125009 75 265 0.0 2.0 0.00 0.01 0.00 95 1010.8
20260509124524 75 265 0.0 3.0 0.00 0.01 0.00 96 1010.4
20260509124009 75 161 1.0 3.0 0.00 0.01 0.00 96 1010.0
20260509123508 74 265 0.0 3.0 0.00 0.01 0.00 95 1010.2
20260509123026 74 137 0.0 3.0 0.00 0.01 0.00 95 1010.5
20260509122510 74 165 0.0 3.0 0.00 0.01 0.00 95 1010.4
20260509122008 74 265 1.0 2.0 0.00 0.01 0.00 95 1010.5
20260509121520 74 146 0.0 2.0 0.00 0.01 0.00 95 1010.5
20260509121007 74 161 0.0 2.0 0.00 0.01 0.00 95 1010.6
20260509120510 74 178 0.0 2.0 0.00 0.01 0.00 95 1010.6
20260509120032 74 153 0.0 2.0 0.00 0.01 0.00 95 1010.5
20260509115513 74 93 0.0 2.0 0.00 0.01 0.00 95 1010.3
20260509115010 74 265 0.0 1.0 0.00 0.01 0.00 95 1010.3
20260509114526 74 178 0.0 1.0 0.00 0.01 0.00 95 1010.2
20260509114008 74 119 0.0 2.0 0.00 0.01 0.00 95 1010.3
20260509113508 74 93 0.0 2.0 0.00 0.01 0.00 95 1010.3
20260509113022 74 26 0.0 2.0 0.00 0.01 0.00 95 1010.2